Wind_Speed
13 13 12 12 12 11 11 10 9 9 7 7 7 7 8 8 9 10 11 11 12 13 14 14 15 15 16 17 17 17 18 18 18 18 18 19 19 20 20 21 22 22 23
12 13 13 12 12 12 11 10 10 10 9 8 8 9 9 10 10 11 12 13 13 14 15 15 16 16 17 18 18 18 18 19 19 19 20 20 21 21 22 23 23 24 25
12 13 13 12 12 12 11 11 10 10 10 10 10 10 11 11 11 12 13 14 15 15 16 16 17 17 18 19 19 20 20 20 21 21 22 22 22 23 24 25 26 26 27
11 12 12 12 12 12 12 12 11 12 12 12 11 12 12 12 13 14 15 15 16 16 17 18 18 19 19 20 20 21 21 22 22 22 23 23 23 24 25 26 27 28 29
12 12 12 13 13 13 13 13 13 13 13 13 14 14 14 15 15 16 16 17 18 18 18 19 19 20 21 21 22 22 23 23 24 24 24 25 26 26 27 27 28 29 30
14 14 14 14 14 14 15 15 15 15 15 15 15 15 16 17 17 18 18 19 19 20 20 21 21 22 22 23 23 24 24 25 25 26 27 27 28 29 29 30 30 30 31
15 15 15 15 15 16 16 16 17 17 17 17 17 17 18 18 19 20 20 20 21 21 22 22 23 23 24 24 25 26 26 27 27 28 28 29 30 30 31 31 32 32 33
15 16 16 16 17 17 18 18 19 18 18 18 19 19 20 20 21 21 22 22 23 23 23 24 24 25 25 26 26 27 28 29 30 30 31 31 31 32 33 33 34 35 35
16 16 17 18 18 18 19 19 20 20 20 20 20 20 21 22 22 23 23 24 24 25 26 26 27 27 27 28 28 29 30 31 32 32 33 33 33 34 35 36 37 37 37
16 17 18 19 20 20 21 21 21 22 22 22 22 22 22 23 24 25 25 26 27 27 27 28 29 30 30 30 31 31 32 33 34 34 35 35 36 37 38 39 39 40 39
19 19 20 21 21 21 21 22 22 22 23 24 24 24 24 25 26 26 27 28 29 29 29 30 31 32 32 33 33 34 35 35 36 36 37 37 38 39 40 41 41 42 42
20 21 21 22 23 23 23 24 24 24 25 26 26 26 26 27 28 29 30 30 30 31 31 32 33 33 34 35 36 37 38 38 38 39 39 39 40 41 42 42 43 44 43
22 23 23 24 24 25 26 27 27 27 27 27 28 28 28 29 30 30 31 31 32 33 34 34 35 36 37 38 39 39 40 41 41 41 41 41 42 42 43 43 44 44 44
23 24 25 26 27 27 27 28 28 28 29 29 29 30 30 31 32 32 31 32 32 34 35 36 38 38 39 40 41 42 44 44 44 44 44 44 44 44 44 45 45 45 44
25 26 26 28 29 30 30 30 29 29 30 31 32 32 32 33 33 34 34 35 36 37 38 39 40 41 42 43 43 44 46 47 47 47 47 46 46 46 47 47 46 45 44
26 26 27 27 29 30 31 31 32 32 33 34 34 33 33 34 35 36 37 38 39 40 41 41 42 43 44 44 46 47 48 49 49 49 48 48 48 48 48 47 47 45 44
26 27 28 29 30 31 32 33 33 33 33 34 34 35 36 37 38 39 40 41 41 42 42 43 44 44 45 46 48 49 49 49 49 49 48 48 48 47 47 46 45 44 43
28 28 29 29 30 31 32 33 34 34 35 36 37 38 39 39 40 40 41 41 41 42 43 45 45 46 48 49 50 50 50 49 49 49 48 48 47 46 46 45 44 43 42
28 29 29 30 31 31 32 33 35 36 38 39 39 40 40 41 41 42 42 43 43 44 46 47 47 48 49 50 50 49 49 48 48 48 48 47 46 46 45 44 43 41 40
30 30 30 30 30 31 33 34 36 37 39 40 41 41 40 41 42 43 44 44 45 46 47 47 48 49 50 50 49 48 48 47 47 46 46 45 45 44 44 42 41 40 39
30 30 31 31 32 33 34 36 37 38 39 40 40 41 42 42 43 44 45 46 46 47 48 48 48 48 48 48 47 47 47 46 46 45 44 44 43 43 42 40 39 38 37
31 32 33 33 34 34 35 36 37 38 40 40 40 42 43 44 44 45 46 46 47 47 48 47 47 47 48 47 47 47 46 46 45 44 43 42 42 41 39 38 37 36 36
31 32 33 33 34 35 35 36 38 39 41 42 42 43 45 45 45 46 46 47 47 46 46 46 46 47 46 46 46 45 44 43 43 43 41 41 39 38 37 36 35 34 33
31 32 33 34 35 36 37 38 39 41 42 43 44 45 45 46 46 45 45 45 44 43 44 44 45 45 45 44 44 43 43 42 41 40 39 38 36 35 34 33 32 31 29
32 34 34 35 36 37 37 39 40 41 43 43 43 44 44 44 44 44 43 42 42 42 43 44 44 44 43 42 42 41 41 40 39 38 37 35 34 32 31 29 29 27 26
34 34 35 35 36 37 39 40 40 41 41 42 42 43 42 42 42 42 42 42 42 43 43 43 43 43 42 41 40 39 38 37 37 35 33 31 30 29 28 26 25 24 23
Wind_Direction
189 191 192 196 201 203 204 207 209 218 229 241 252 263 274 284 292 299 306 310 311 312 314 316 318 319 318 317 315 313 311 309 305 302 298 296 293 292 290 288 286 284 281
198 202 205 208 210 208 211 214 222 231 240 250 260 268 276 283 290 296 301 306 308 309 311 312 312 313 314 314 313 312 310 309 306 303 299 296 293 292 291 290 288 286 284
204 208 211 211 210 213 218 225 233 239 247 256 263 271 278 283 288 294 298 302 304 306 308 308 309 310 312 312 311 310 308 307 306 304 301 298 295 294 293 292 291 289 286
207 208 208 211 215 222 228 234 240 246 252 258 265 272 276 281 287 292 295 299 301 302 304 305 306 307 309 310 309 308 307 306 306 304 301 298 297 296 295 294 293 290 288
214 217 219 220 225 232 237 241 246 250 256 262 267 273 276 281 286 289 292 295 298 299 300 302 304 305 306 307 307 307 307 306 305 304 301 299 296 295 295 294 294 292 290
224 226 227 230 235 240 244 248 253 256 261 266 269 273 277 282 286 289 290 293 295 297 298 299 301 302 304 305 305 305 305 305 304 303 301 298 296 295 294 294 294 294 291
231 233 235 238 243 246 250 253 256 259 263 267 271 275 280 283 286 288 290 292 293 295 296 297 299 300 302 303 304 303 302 302 302 302 300 298 297 296 295 294 294 294 293
235 239 243 247 250 252 253 255 257 260 265 268 271 275 279 282 285 288 290 291 292 294 296 297 297 299 300 301 301 301 300 300 300 299 299 297 296 295 294 294 294 293 293
239 242 246 250 252 254 256 258 260 264 267 270 272 275 279 282 285 287 288 290 292 293 294 296 296 297 298 299 300 300 300 300 299 299 298 297 295 294 294 294 294 293 292
244 247 249 251 254 256 259 261 264 266 268 271 273 276 279 282 284 285 286 289 291 291 292 295 296 296 297 299 300 300 299 299 299 299 298 297 296 294 294 294 294 293 292
250 253 254 256 257 258 262 265 268 269 272 273 274 276 280 282 285 286 287 289 290 290 291 293 294 296 297 297 298 299 299 299 298 298 297 297 296 295 295 294 294 293 292
255 256 258 260 260 263 267 268 269 271 274 275 275 277 279 281 285 287 287 288 289 291 291 292 293 295 296 295 296 297 297 298 298 297 297 296 295 295 295 294 294 294 293
256 259 261 262 263 266 269 269 271 273 275 276 278 279 281 283 284 286 287 288 289 290 290 291 292 294 295 295 295 296 297 297 297 297 296 296 295 294 294 293 293 293 292
261 263 264 265 264 265 267 270 271 273 275 276 278 280 281 282 283 284 286 288 288 289 289 290 292 293 293 294 294 295 296 296 296 296 295 295 295 294 293 293 292 292 290
267 268 269 268 266 268 269 270 272 274 278 279 278 279 282 283 283 284 284 285 287 288 289 291 292 293 293 294 295 295 295 296 295 295 295 294 294 293 292 292 292 290 289
269 271 272 274 272 271 271 273 274 275 278 278 279 280 283 283 282 283 284 285 286 288 289 291 292 293 293 294 294 294 294 294 294 294 294 293 293 292 292 292 291 290 290
268 270 271 272 272 272 273 273 274 277 280 280 280 282 283 284 285 286 286 287 288 289 290 291 293 293 294 294 294 295 294 294 294 294 293 293 293 292 292 291 291 290 289
270 272 274 274 275 274 273 274 277 279 280 282 284 285 285 285 285 286 287 288 288 290 291 291 292 293 294 295 295 295 295 294 294 294 293 293 293 292 291 290 290 290 289
272 274 276 276 277 276 275 276 279 280 280 280 282 283 284 284 285 286 287 287 288 290 291 291 291 293 294 295 295 295 295 294 293 293 293 292 292 291 291 291 290 289 289
272 274 275 277 278 279 280 281 281 281 281 282 283 284 286 286 286 287 288 288 289 291 292 292 292 294 295 295 295 295 294 293 293 293 292 292 292 291 290 290 289 288 287
272 274 276 277 278 278 279 280 282 284 285 285 286 287 288 287 288 288 288 289 290 291 292 293 294 294 294 295 295 295 294 293 293 293 292 292 291 290 290 290 288 287 286
273 274 275 276 277 279 281 283 284 285 286 285 285 287 288 288 289 289 288 289 290 291 293 293 294 294 295 296 296 295 294 293 293 293 293 293 292 290 289 289 287 287 287
275 276 275 277 278 279 280 282 284 285 286 286 286 287 288 288 288 288 288 290 291 292 294 294 295 295 296 296 296 296 295 294 294 294 293 293 292 290 289 288 287 287 287
280 280 281 281 282 282 282 284 286 286 287 287 287 288 288 288 289 289 289 291 292 293 295 296 296 296 297 297 296 295 295 294 294 293 292 292 291 289 289 287 286 285 285
283 284 285 286 287 286 285 286 287 288 288 289 289 289 290 290 290 290 291 292 293 294 295 296 298 298 299 298 296 295 294 293 293 293 293 292 290 289 288 286 285 283 283
284 285 286 287 288 288 288 288 289 290 291 292 291 291 291 290 290 291 292 293 293 294 295 297 298 299 299 298 296 295 295 295 294 293 293 291 289 288 287 285 284 282 281
Height
5846 5848 5850 5852 5854 5856 5857 5859 5860 5861 5862 5862 5862 5862 5862 5861 5860 5859 5858 5857 5855 5854 5852 5851 5848 5846 5844 5842 5839 5837 5835 5832 5830 5828 5826 5824 5823 5821 5820 5818 5817 5815 5814
5844 5846 5848 5850 5852 5854 5855 5857 5858 5858 5859 5859 5859 5859 5858 5858 5857 5856 5855 5853 5852 5850 5848 5846 5844 5842 5840 5837 5835 5832 5830 5827 5825 5823 5821 5819 5817 5815 5813 5811 5810 5808 5806
5842 5844 5846 5848 5850 5851 5853 5854 5855 5855 5856 5856 5856 5855 5855 5854 5853 5852 5851 5849 5848 5846 5844 5842 5840 5838 5835 5833 5830 5827 5825 5822 5820 5817 5814 5812 5810 5808 5806 5804 5802 5800 5798
5840 5842 5844 5846 5847 5849 5850 5851 5851 5852 5852 5852 5852 5851 5851 5850 5849 5848 5846 5845 5843 5841 5839 5837 5835 5833 5830 5828 5825 5822 5819 5817 5814 5811 5808 5806 5803 5801 5799 5797 5794 5792 5790
5839 5840 5842 5843 5845 5846 5846 5847 5848 5848 5848 5848 5848 5847 5846 5845 5844 5843 5841 5840 5838 5836 5834 5832 5830 5828 5825 5822 5819 5816 5813 5811 5808 5805 5802 5799 5796 5794 5791 5789 5786 5783 5781
5836 5837 5839 5840 5841 5842 5843 5843 5844 5844 5844 5844 5843 5842 5842 5841 5839 5838 5836 5835 5833 5831 5829 5827 5825 5822 5819 5816 5813 5810 5807 5804 5801 5798 5795 5792 5789 5786 5783 5780 5778 5775 5772
5832 5834 5835 5836 5837 5838 5839 5839 5839 5839 5839 5839 5838 5837 5836 5835 5834 5833 5831 5829 5827 5825 5823 5821 5819 5816 5813 5810 5807 5803 5800 5797 5794 5791 5787 5784 5781 5777 5774 5771 5768 5765 5762
5829 5830 5831 5832 5833 5833 5834 5834 5834 5834 5833 5833 5832 5832 5831 5829 5828 5826 5825 5823 5821 5819 5817 5814 5812 5809 5806 5803 5800 5796 5793 5789 5786 5782 5779 5775 5772 5768 5765 5762 5759 5756 5752
5825 5826 5827 5827 5828 5828 5828 5828 5828 5828 5827 5827 5826 5825 5824 5823 5821 5820 5818 5816 5814 5812 5809 5807 5804 5802 5799 5795 5792 5789 5785 5781 5777 5773 5770 5766 5762 5759 5755 5752 5748 5745 5742
5820 5821 5821 5822 5822 5822 5822 5822 5821 5821 5821 5820 5819 5818 5817 5816 5814 5812 5810 5809 5807 5804 5802 5799 5797 5794 5790 5787 5783 5780 5776 5772 5768 5764 5760 5756 5752 5748 5744 5740 5737 5733 5730
5815 5816 5816 5816 5816 5816 5816 5815 5815 5814 5814 5813 5812 5811 5810 5808 5806 5804 5803 5801 5799 5796 5794 5791 5788 5785 5781 5778 5774 5770 5767 5763 5759 5754 5750 5746 5741 5737 5733 5728 5724 5720 5717
5809 5809 5809 5809 5809 5809 5809 5808 5808 5807 5807 5806 5804 5803 5801 5800 5798 5796 5795 5793 5790 5788 5785 5782 5779 5776 5772 5768 5764 5760 5756 5752 5748 5743 5739 5735 5730 5725 5721 5716 5712 5707 5703
5802 5802 5802 5802 5802 5802 5802 5801 5800 5800 5799 5798 5796 5795 5793 5792 5790 5788 5786 5784 5781 5779 5776 5773 5769 5766 5762 5758 5754 5749 5745 5741 5736 5732 5728 5723 5718 5713 5709 5704 5699 5694 5690
5795 5795 5795 5794 5794 5794 5794 5793 5792 5792 5791 5789 5788 5786 5784 5782 5780 5778 5776 5774 5771 5769 5766 5762 5759 5755 5751 5747 5743 5738 5734 5729 5724 5720 5716 5711 5706 5701 5696 5691 5686 5682 5678
5788 5788 5787 5786 5786 5786 5785 5784 5784 5783 5782 5780 5778 5776 5775 5773 5771 5769 5766 5764 5761 5758 5755 5751 5747 5743 5739 5735 5730 5725 5721 5716 5711 5707 5702 5697 5692 5687 5683 5677 5673 5668 5664
5780 5780 5779 5779 5778 5777 5776 5776 5774 5774 5772 5771 5769 5767 5765 5763 5761 5758 5756 5753 5750 5746 5743 5739 5735 5731 5726 5722 5717 5712 5707 5702 5697 5692 5687 5683 5678 5673 5668 5663 5659 5655 5651
5771 5771 5770 5770 5769 5768 5767 5766 5765 5764 5763 5761 5759 5757 5755 5752 5749 5747 5744 5740 5737 5734 5730 5726 5722 5717 5713 5708 5703 5698 5693 5688 5683 5678 5673 5668 5663 5659 5654 5650 5645 5641 5637
5763 5762 5761 5760 5759 5758 5757 5756 5755 5754 5753 5751 5749 5747 5744 5741 5738 5735 5732 5729 5725 5721 5717 5713 5708 5704 5699 5694 5689 5684 5678 5673 5668 5663 5658 5653 5649 5644 5640 5636 5632 5628 5624
5754 5754 5753 5751 5750 5748 5748 5747 5746 5744 5742 5740 5738 5735 5732 5729 5726 5723 5719 5716 5712 5708 5704 5699 5694 5690 5685 5679 5674 5669 5664 5659 5654 5649 5644 5639 5635 5630 5626 5622 5619 5615 5612
5746 5745 5744 5743 5741 5740 5739 5737 5735 5733 5731 5729 5726 5723 5720 5717 5714 5710 5707 5703 5699 5695 5690 5685 5680 5675 5670 5665 5660 5655 5649 5644 5640 5635 5630 5625 5621 5617 5613 5609 5606 5603 5600
5736 5736 5735 5733 5732 5730 5728 5727 5724 5722 5720 5717 5714 5711 5708 5704 5701 5698 5694 5689 5685 5680 5676 5671 5666 5661 5656 5650 5645 5640 5635 5630 5626 5621 5616 5612 5608 5604 5600 5596 5593 5591 5588
5727 5726 5724 5723 5721 5720 5718 5716 5713 5711 5708 5705 5702 5699 5695 5691 5687 5684 5679 5675 5671 5666 5661 5656 5651 5646 5641 5636 5631 5626 5621 5616 5612 5607 5603 5599 5595 5591 5588 5584 5582 5579 5577
5717 5716 5714 5713 5711 5709 5707 5705 5703 5699 5696 5693 5689 5685 5682 5678 5674 5669 5665 5661 5656 5651 5647 5642 5637 5632 5627 5622 5617 5612 5608 5603 5598 5594 5590 5586 5583 5579 5576 5573 5571 5568 5566
5708 5706 5704 5703 5700 5698 5696 5693 5690 5687 5684 5680 5676 5672 5668 5663 5659 5655 5651 5646 5642 5638 5633 5628 5624 5618 5613 5608 5603 5598 5594 5590 5586 5581 5578 5574 5571 5568 5565 5562 5560 5558 5556
5698 5696 5693 5691 5689 5686 5684 5681 5677 5674 5670 5666 5662 5658 5654 5649 5645 5641 5637 5633 5629 5624 5620 5615 5610 5605 5600 5595 5590 5586 5581 5577 5573 5569 5566 5563 5560 5557 5555 5553 5551 5549 5548
5687 5684 5682 5679 5677 5674 5671 5668 5665 5661 5657 5653 5648 5644 5640 5636 5632 5628 5624 5620 5615 5611 5607 5602 5597 5592 5587 5582 5578 5573 5569 5565 5562 5558 5555 5552 5550 5547 5545 5544 5542 5541 5540